Regional Weather Roundup
Issued by NWS Cleveland, OH

Home | Current Version | Previous Version | Graphics & Text | Print | Product List | Glossary On
Versions: 1 2 3 4 5 6 7 8 9 10 11 12 13 14 15 16 17 18 19 20 21 22 23 24 25 26 27 28 29 30 31 32 33 34 35 36 37 38 39 40 41 42 43 44 45 46 47 48 49 50
000
ASUS41 KCLE 300112
RWRCLE
OHIO REGIONAL WEATHER ROUNDUP
NATIONAL WEATHER SERVICE WILMINGTON, OH
900 PM EDT MON MAY 29 2017

NOTE: "FAIR" INDICATES FEW OR NO CLOUDS BELOW 12,000 FEET WITH NO
SIGNIFICANT WEATHER AND/OR OBSTRUCTIONS TO VISIBILITY.

OHZ001>008-015>018-024>027-034-035-043-044-300200-
   NORTHWEST OHIO

CITY           SKY/WX    TMP DP  RH WIND       PRES   REMARKS
DEFIANCE       MOCLDY    67  54  63 SW3       29.85R
FINDLAY        MOCLDY    70  52  52 SW6       29.86R
TOLEDO EXPRESS FAIR      65  57  75 S8        29.84R
TOLEDO EXEC    FAIR      68  55  63 S8        29.85S
LIMA           MOCLDY    72  52  49 CALM      29.87S
$$

OHZ009>014-019>023-028>033-038-089-300200-
   NORTHEAST OHIO

CITY           SKY/WX    TMP DP  RH WIND       PRES   REMARKS
CLE-HOPKINS    FAIR      73  56  54 S6        29.89R
CLE-LAKEFRONT  FAIR      65  54  67 SW6       29.87R
CUY CO. ARPT   PTCLDY    70  52  52 NW9       29.90R
LORAIN-ELYRIA  FAIR      70  50  49 S3        29.88R
ASHTABULA      FAIR      64  63  96 S5        29.90S
AKRON-CANTON   FAIR      66  54  65 S9        29.92R
WOOSTER        FAIR      68  55  63 S8        29.92R
MANSFIELD      FAIR      69  55  60 S9        29.91R
YOUNGSTOWN     FAIR      66  54  65 S7        29.92R
$$

OHZ042-051>053-060>062-070>072-077>081-300200-
  SOUTHWEST OHIO

CITY           SKY/WX    TMP DP  RH WIND       PRES   REMARKS
CINC-COVINGTON MOCLDY    74  52  46 S5        29.93R
CINC-LUNKEN    FAIR      68  59  73 S6        29.92R
HAMILTON       FAIR      71  60  68 SW3       29.92R
DAYTON         FAIR      72  53  51 S9        29.91S
WRIGHT-PAT AFB FAIR      71  55  56 S6        29.90S
DAYTON GENERAL LGT RAIN  70  57  63 S3        29.91R
WILMINGTON     FAIR      69  56  62 S6        29.93R
$$

OHZ036-037-039>041-045>050-054>059-063>069-073>076-082>088-300200-
  CENTRAL AND SOUTHEAST OHIO

CITY           SKY/WX    TMP DP  RH WIND       PRES   REMARKS
COLUMBUS       MOCLDY    76  52  43 SW7       29.90S
OSU AIRPORT    FAIR      74  53  48 SW6       29.91R
BOLTON FIELD   MOCLDY    72  56  57 SW7       29.92S
RICKENBACK AFB CLOUDY    74  57  55 S5        29.92R
NEWARK         FAIR      73  52  47 S5        29.91S
MARION         FAIR      72  53  51 SW9       29.90R
LANCASTER      CLOUDY    74  55  51 CALM      29.93R
ZANESVILLE     FAIR      72  56  57 S5        29.93R
NEW PHILLY     MOCLDY    66  63  90 SE5       29.93S
$$



USA.gov is the U.S. government's official web portal to all federal, state and local government web resources and services.